Time,TemperatureF,DewpointF,PressureIn,WindDirection,WindDirectionDegrees,WindSpeedMPH,WindSpeedGustMPH,Humidity,HourlyPrecipIn,Conditions,Clouds,dailyrainin,SolarRadiationWatts/m^2,SoftwareType,DateUTC
2013-01-29 00:04:00,41.0,39.0,-100.00,South,170,0.0,3.0,93,0.00,,,0.21,0.000000,,2013-01-29 05:04:00,
2013-01-29 00:12:00,41.0,39.0,-100.00,South,170,0.0,3.0,93,0.00,,,0.21,0.000000,,2013-01-29 05:12:00,
2013-01-29 00:32:00,43.0,41.0,-100.00,SSW,213,1.0,3.0,94,0.00,,,0.21,0.000000,,2013-01-29 05:32:00,
2013-01-29 00:43:00,43.0,41.0,-100.00,SSW,213,1.0,3.0,94,0.00,,,0.21,0.000000,,2013-01-29 05:43:00,
2013-01-29 00:52:00,43.0,41.0,-100.00,SSW,213,1.0,3.0,94,0.00,,,0.21,0.000000,,2013-01-29 05:52:00,
2013-01-29 01:02:00,43.0,41.0,-100.00,SSW,213,1.0,3.0,94,0.00,,,0.21,0.000000,,2013-01-29 06:02:00,
2013-01-29 01:11:00,43.0,41.0,-100.00,SSW,213,1.0,3.0,94,0.00,,,0.21,0.000000,,2013-01-29 06:11:00,
2013-01-29 01:32:00,44.0,42.0,-100.00,SW,221,1.0,4.0,91,0.00,,,0.21,0.000000,,2013-01-29 06:32:00,
2013-01-29 01:42:00,44.0,42.0,-100.00,SW,221,1.0,4.0,91,0.00,,,0.21,0.000000,,2013-01-29 06:42:00,
2013-01-29 01:52:00,44.0,42.0,-100.00,SW,221,1.0,4.0,91,0.00,,,0.21,0.000000,,2013-01-29 06:52:00,
2013-01-29 02:02:00,44.0,42.0,-100.00,SW,221,1.0,4.0,91,0.00,,,0.21,0.000000,,2013-01-29 07:02:00,
2013-01-29 02:11:00,44.0,42.0,-100.00,SW,221,1.0,4.0,91,0.00,,,0.21,0.000000,,2013-01-29 07:11:00,
2013-01-29 02:32:00,43.0,40.0,-100.00,SW,220,1.0,5.0,88,0.00,,,0.21,0.000000,,2013-01-29 07:32:00,
2013-01-29 02:42:00,43.0,40.0,-100.00,SW,220,1.0,5.0,88,0.00,,,0.21,0.000000,,2013-01-29 07:42:00,
2013-01-29 02:52:00,43.0,40.0,-100.00,SW,220,1.0,5.0,88,0.00,,,0.21,0.000000,,2013-01-29 07:52:00,
2013-01-29 03:02:00,43.0,40.0,-100.00,SW,220,1.0,5.0,88,0.00,,,0.21,0.000000,,2013-01-29 08:02:00,
2013-01-29 03:11:00,43.0,40.0,-100.00,SW,220,1.0,5.0,88,0.00,,,0.21,0.000000,,2013-01-29 08:11:00,
2013-01-29 03:32:00,45.0,43.0,-100.00,SSW,196,1.0,4.0,91,0.00,,,0.21,0.000000,,2013-01-29 08:32:00,
2013-01-29 03:42:00,45.0,43.0,-100.00,SSW,196,1.0,4.0,91,0.00,,,0.21,0.000000,,2013-01-29 08:42:00,
2013-01-29 03:52:00,45.0,43.0,-100.00,SSW,196,1.0,4.0,91,0.00,,,0.21,0.000000,,2013-01-29 08:52:00,
2013-01-29 04:02:00,45.0,43.0,-100.00,SSW,196,1.0,4.0,91,0.00,,,0.21,0.000000,,2013-01-29 09:02:00,
2013-01-29 04:11:00,45.0,43.0,-100.00,SSW,196,1.0,4.0,91,0.00,,,0.21,0.000000,,2013-01-29 09:11:00,
2013-01-29 04:32:00,48.0,45.0,-100.00,SSW,203,1.0,4.0,88,0.00,,,0.21,0.000000,,2013-01-29 09:32:00,
2013-01-29 04:42:00,48.0,45.0,-100.00,SSW,203,1.0,4.0,88,0.00,,,0.21,0.000000,,2013-01-29 09:42:00,
2013-01-29 04:52:00,48.0,45.0,-100.00,SSW,203,1.0,4.0,88,0.00,,,0.21,0.000000,,2013-01-29 09:52:00,
2013-01-29 05:02:00,48.0,45.0,-100.00,SSW,203,1.0,4.0,88,0.00,,,0.21,0.000000,,2013-01-29 10:02:00,
2013-01-29 05:11:00,48.0,45.0,-100.00,SSW,203,1.0,4.0,88,0.00,,,0.21,0.000000,,2013-01-29 10:11:00,
2013-01-29 05:42:00,48.0,45.0,-100.00,SSW,206,1.0,4.0,88,0.00,,,0.21,0.000000,,2013-01-29 10:42:00,
2013-01-29 05:52:00,48.0,45.0,-100.00,SSW,206,1.0,4.0,88,0.00,,,0.21,0.000000,,2013-01-29 10:52:00,
2013-01-29 06:02:00,48.0,45.0,-100.00,SSW,206,1.0,4.0,88,0.00,,,0.21,0.000000,,2013-01-29 11:02:00,
2013-01-29 06:11:00,48.0,45.0,-100.00,SSW,206,1.0,4.0,88,0.00,,,0.21,0.000000,,2013-01-29 11:11:00,
2013-01-29 06:32:00,48.0,45.0,-100.00,SSW,195,0.0,2.0,90,0.00,,,0.21,0.000000,,2013-01-29 11:32:00,
2013-01-29 06:42:00,48.0,45.0,-100.00,SSW,195,0.0,2.0,90,0.00,,,0.21,0.000000,,2013-01-29 11:42:00,
2013-01-29 06:53:00,48.0,45.0,-100.00,SSW,195,0.0,2.0,90,0.00,,,0.21,0.000000,,2013-01-29 11:53:00,
2013-01-29 07:03:00,48.0,45.0,-100.00,SSW,195,0.0,2.0,90,0.00,,,0.21,0.000000,,2013-01-29 12:03:00,
2013-01-29 07:12:00,48.0,45.0,-100.00,SSW,195,0.0,2.0,90,0.00,,,0.21,0.000000,,2013-01-29 12:12:00,
2013-01-29 07:33:00,48.0,46.0,-100.00,South,181,1.0,4.0,92,0.00,,,0.21,0.000000,,2013-01-29 12:33:00,
2013-01-29 07:43:00,48.0,46.0,-100.00,South,181,1.0,4.0,92,0.00,,,0.21,0.000000,,2013-01-29 12:43:00,
2013-01-29 07:53:00,48.0,46.0,-100.00,South,181,1.0,4.0,92,0.00,,,0.21,0.000000,,2013-01-29 12:53:00,
2013-01-29 08:02:00,48.0,46.0,-100.00,South,181,1.0,4.0,92,0.00,,,0.21,0.000000,,2013-01-29 13:02:00,
2013-01-29 08:12:00,48.0,46.0,-100.00,South,181,1.0,4.0,92,0.00,,,0.21,0.000000,,2013-01-29 13:12:00,
2013-01-29 08:43:00,50.0,47.0,-100.00,South,171,3.0,6.0,90,0.00,,,0.17,17.000000,,2013-01-29 13:43:00,
2013-01-29 08:53:00,50.0,47.0,-100.00,South,171,3.0,6.0,90,0.00,,,0.17,17.000000,,2013-01-29 13:53:00,
2013-01-29 09:02:00,50.0,47.0,-100.00,South,171,3.0,6.0,90,0.00,,,0.17,17.000000,,2013-01-29 14:02:00,
2013-01-29 09:12:00,50.0,47.0,-100.00,South,171,3.0,6.0,90,0.00,,,0.17,17.000000,,2013-01-29 14:12:00,
2013-01-29 09:33:00,55.0,49.0,-100.00,SSW,199,1.0,5.0,80,0.00,,,0.13,97.000000,,2013-01-29 14:33:00,
2013-01-29 09:43:00,55.0,49.0,-100.00,SSW,199,1.0,5.0,80,0.00,,,0.13,97.000000,,2013-01-29 14:43:00,
2013-01-29 09:53:00,55.0,49.0,-100.00,SSW,199,1.0,5.0,80,0.00,,,0.13,97.000000,,2013-01-29 14:53:00,
2013-01-29 10:03:00,55.0,49.0,-100.00,SSW,199,1.0,5.0,80,0.00,,,0.13,97.000000,,2013-01-29 15:03:00,
2013-01-29 10:12:00,55.0,49.0,-100.00,SSW,199,1.0,5.0,80,0.00,,,0.13,97.000000,,2013-01-29 15:12:00,
2013-01-29 10:33:00,60.0,51.0,-100.00,WSW,237,1.0,7.0,73,0.00,,,0.10,228.000000,,2013-01-29 15:33:00,
2013-01-29 10:43:00,60.0,51.0,-100.00,WSW,237,1.0,7.0,73,0.00,,,0.10,228.000000,,2013-01-29 15:43:00,
2013-01-29 10:53:00,60.0,51.0,-100.00,WSW,237,1.0,7.0,73,0.00,,,0.10,228.000000,,2013-01-29 15:53:00,
2013-01-29 11:03:00,60.0,51.0,-100.00,WSW,237,1.0,7.0,73,0.00,,,0.10,228.000000,,2013-01-29 16:03:00,
2013-01-29 11:12:00,60.0,51.0,-100.00,WSW,237,1.0,7.0,73,0.00,,,0.10,228.000000,,2013-01-29 16:12:00,
2013-01-29 11:43:00,62.0,52.0,-100.00,SSW,203,2.0,5.0,69,0.00,,,0.04,309.000000,,2013-01-29 16:43:00,
2013-01-29 11:53:00,62.0,52.0,-100.00,SSW,203,2.0,5.0,69,0.00,,,0.04,309.000000,,2013-01-29 16:53:00,
2013-01-29 12:03:00,62.0,52.0,-100.00,SSW,203,2.0,5.0,69,0.00,,,0.04,309.000000,,2013-01-29 17:03:00,
2013-01-29 12:12:00,62.0,52.0,-100.00,SSW,203,2.0,5.0,69,0.00,,,0.04,309.000000,,2013-01-29 17:12:00,
2013-01-29 12:42:00,65.0,53.0,-100.00,South,170,3.0,6.0,65,0.00,,,0.01,330.000000,,2013-01-29 17:42:00,
2013-01-29 12:53:00,65.0,53.0,-100.00,South,170,3.0,6.0,65,0.00,,,0.01,330.000000,,2013-01-29 17:53:00,
2013-01-29 13:04:00,65.0,53.0,-100.00,South,170,3.0,6.0,65,0.00,,,0.01,330.000000,,2013-01-29 18:04:00,
2013-01-29 13:12:00,65.0,53.0,-100.00,South,170,3.0,6.0,65,0.00,,,0.01,330.000000,,2013-01-29 18:12:00,
2013-01-29 13:33:00,67.0,53.0,-100.00,SSE,163,3.0,7.0,61,0.00,,,0.00,343.000000,,2013-01-29 18:33:00,
2013-01-29 13:42:00,67.0,53.0,-100.00,SSE,163,3.0,7.0,61,0.00,,,0.00,343.000000,,2013-01-29 18:42:00,
2013-01-29 13:52:00,67.0,53.0,-100.00,SSE,163,3.0,7.0,61,0.00,,,0.00,343.000000,,2013-01-29 18:52:00,
2013-01-29 14:03:00,67.0,53.0,-100.00,SSE,163,3.0,7.0,61,0.00,,,0.00,343.000000,,2013-01-29 19:03:00,
2013-01-29 14:12:00,67.0,53.0,-100.00,SSE,163,3.0,7.0,61,0.00,,,0.00,343.000000,,2013-01-29 19:12:00,
2013-01-29 14:13:00,69.0,54.0,-100.00,South,184,3.0,9.0,58,0.00,,,0.00,244.000000,,2013-01-29 19:13:00,
2013-01-29 14:42:00,69.0,54.0,-100.00,South,184,3.0,9.0,58,0.00,,,0.00,244.000000,,2013-01-29 19:42:00,
2013-01-29 14:52:00,69.0,54.0,-100.00,South,184,3.0,9.0,58,0.00,,,0.00,244.000000,,2013-01-29 19:52:00,
2013-01-29 15:03:00,69.0,54.0,-100.00,South,184,3.0,9.0,58,0.00,,,0.00,244.000000,,2013-01-29 20:03:00,
2013-01-29 15:33:00,67.0,52.0,-100.00,SSE,158,4.0,10.0,59,0.00,,,0.00,190.000000,,2013-01-29 20:33:00,
2013-01-29 15:42:00,67.0,52.0,-100.00,SSE,158,4.0,10.0,59,0.00,,,0.00,190.000000,,2013-01-29 20:42:00,
2013-01-29 15:53:00,67.0,52.0,-100.00,SSE,158,4.0,10.0,59,0.00,,,0.00,190.000000,,2013-01-29 20:53:00,
2013-01-29 16:03:00,67.0,52.0,-100.00,SSE,158,4.0,10.0,59,0.00,,,0.00,190.000000,,2013-01-29 21:03:00,
2013-01-29 16:12:00,67.0,52.0,-100.00,SSE,158,4.0,10.0,59,0.00,,,0.00,190.000000,,2013-01-29 21:12:00,
2013-01-29 16:42:00,66.0,53.0,-100.00,SSE,150,3.0,7.0,62,0.00,,,0.00,119.000000,,2013-01-29 21:42:00,
2013-01-29 16:53:00,66.0,53.0,-100.00,SSE,150,3.0,7.0,62,0.00,,,0.00,119.000000,,2013-01-29 21:53:00,
2013-01-29 17:03:00,66.0,53.0,-100.00,SSE,150,3.0,7.0,62,0.00,,,0.00,119.000000,,2013-01-29 22:03:00,
2013-01-29 17:12:00,66.0,53.0,-100.00,SSE,150,3.0,7.0,62,0.00,,,0.00,119.000000,,2013-01-29 22:12:00,
2013-01-29 17:43:00,64.0,51.0,-100.00,SE,143,3.0,8.0,62,0.00,,,0.00,48.000000,,2013-01-29 22:43:00,
2013-01-29 17:53:00,64.0,51.0,-100.00,SE,143,3.0,8.0,62,0.00,,,0.00,48.000000,,2013-01-29 22:53:00,
2013-01-29 18:02:00,64.0,51.0,-100.00,SE,143,3.0,8.0,62,0.00,,,0.00,48.000000,,2013-01-29 23:02:00,
2013-01-29 18:12:00,64.0,51.0,-100.00,SE,143,3.0,8.0,62,0.00,,,0.00,48.000000,,2013-01-29 23:12:00,
2013-01-29 18:33:00,61.0,50.0,-100.00,SE,145,3.0,6.0,68,0.00,,,0.00,2.000000,,2013-01-29 23:33:00,
2013-01-29 18:42:00,61.0,50.0,-100.00,SE,145,3.0,6.0,68,0.00,,,0.00,2.000000,,2013-01-29 23:42:00,
2013-01-29 18:53:00,61.0,50.0,-100.00,SE,145,3.0,6.0,68,0.00,,,0.00,2.000000,,2013-01-29 23:53:00,
2013-01-29 19:03:00,61.0,50.0,-100.00,SE,145,3.0,6.0,68,0.00,,,0.00,2.000000,,2013-01-30 00:03:00,
2013-01-29 19:12:00,61.0,50.0,-100.00,SE,145,3.0,6.0,68,0.00,,,0.00,2.000000,,2013-01-30 00:12:00,
2013-01-29 19:33:00,60.0,49.0,-100.00,SE,136,3.0,8.0,67,0.00,,,0.00,0.000000,,2013-01-30 00:33:00,
2013-01-29 19:43:00,60.0,49.0,-100.00,SE,136,3.0,8.0,67,0.00,,,0.00,0.000000,,2013-01-30 00:43:00,
2013-01-29 19:53:00,60.0,49.0,-100.00,SE,136,3.0,8.0,67,0.00,,,0.00,0.000000,,2013-01-30 00:53:00,
2013-01-29 20:02:00,60.0,49.0,-100.00,SE,136,3.0,8.0,67,0.00,,,0.00,0.000000,,2013-01-30 01:02:00,
2013-01-29 20:12:00,60.0,49.0,-100.00,SE,136,3.0,8.0,67,0.00,,,0.00,0.000000,,2013-01-30 01:12:00,
2013-01-29 20:32:00,60.0,50.0,-100.00,SE,142,3.0,10.0,69,0.00,,,0.00,0.000000,,2013-01-30 01:32:00,
2013-01-29 20:43:00,60.0,50.0,-100.00,SE,142,3.0,10.0,69,0.00,,,0.00,0.000000,,2013-01-30 01:43:00,
2013-01-29 20:52:00,60.0,50.0,-100.00,SE,142,3.0,10.0,69,0.00,,,0.00,0.000000,,2013-01-30 01:52:00,
2013-01-29 21:02:00,60.0,50.0,-100.00,SE,142,3.0,10.0,69,0.00,,,0.00,0.000000,,2013-01-30 02:02:00,
2013-01-29 21:12:00,60.0,50.0,-100.00,SE,142,3.0,10.0,69,0.00,,,0.00,0.000000,,2013-01-30 02:12:00,
2013-01-29 21:33:00,55.0,49.0,-100.00,SE,130,2.0,6.0,80,0.00,,,0.00,0.000000,,2013-01-30 02:33:00,
2013-01-29 21:42:00,55.0,49.0,-100.00,SE,130,2.0,6.0,80,0.00,,,0.00,0.000000,,2013-01-30 02:42:00,
2013-01-29 21:53:00,55.0,49.0,-100.00,SE,130,2.0,6.0,80,0.00,,,0.00,0.000000,,2013-01-30 02:53:00,
2013-01-29 22:03:00,55.0,49.0,-100.00,SE,130,2.0,6.0,80,0.00,,,0.00,0.000000,,2013-01-30 03:03:00,
2013-01-29 22:12:00,55.0,49.0,-100.00,SE,130,2.0,6.0,80,0.00,,,0.00,0.000000,,2013-01-30 03:12:00,
2013-01-29 22:32:00,59.0,50.0,-100.00,SSE,156,4.0,8.0,71,0.00,,,0.00,0.000000,,2013-01-30 03:32:00,
2013-01-29 22:42:00,59.0,50.0,-100.00,SSE,156,4.0,8.0,71,0.00,,,0.00,0.000000,,2013-01-30 03:42:00,
2013-01-29 22:52:00,59.0,50.0,-100.00,SSE,156,4.0,8.0,71,0.00,,,0.00,0.000000,,2013-01-30 03:52:00,
2013-01-29 23:02:00,59.0,50.0,-100.00,SSE,156,4.0,8.0,71,0.00,,,0.00,0.000000,,2013-01-30 04:02:00,
2013-01-29 23:12:00,59.0,50.0,-100.00,SSE,156,4.0,8.0,71,0.00,,,0.00,0.000000,,2013-01-30 04:12:00,
2013-01-29 23:32:00,60.0,51.0,-100.00,SSE,163,5.0,11.0,72,0.00,,,0.00,0.000000,,2013-01-30 04:32:00,
2013-01-29 23:42:00,60.0,51.0,-100.00,SSE,163,5.0,11.0,72,0.00,,,0.00,0.000000,,2013-01-30 04:42:00,
2013-01-29 23:52:00,60.0,51.0,-100.00,SSE,163,5.0,11.0,72,0.00,,,0.00,0.000000,,2013-01-30 04:52:00,